THOR ABLESTAR DEB, 5786

Orbit data source: Space-Track

THOR ABLESTAR DEB, 5786 is space debris in LEO originally from a launch on Thu, 29 Jun 1961 UTC launched from the Air Force Eastern Test Range (AFETR). Debris objects in space refer to the collection of defunct objects orbiting the Earth. Examples of debris include non-operational satellites, rocket bodies, and fragments generated from explosions, collisions, or faulty payload assembly.

Loading next visibility...
Identifier
5786, 1961-015KA
Orbit
LEO
Country
Flag of USUS
Related business
Manufacturer
Unknown
Mission
Spacecraft
Bus & Motor
Unknown
Mass
Unknown
Launch date (UTC)
1961-06-29 (65 years ago)
Launch vehicle
Unknown
Launch site
Air Force Eastern Test Range (AFETR)
Object type
Payload
Rocket body
Debris
Shape & HBR
Unknown shape, 0.1 m
Radar Cross Section
Small (<0.1 m²)

Expand to show TLE details & history
Last TLE update: 6 days ago

TLE from 6 days ago
0 THOR ABLESTAR DEB
1 05786U 61015KA  26099.08514904  .00000571  00000-0  39579-3 0  9995
2 05786  67.1182 128.2378 0122133 206.4436 153.0387 14.02230062264875
Epoch: 2026-04-09T02:02Z
TLE epoch observation values (Epoch: 2026-04-09T02:02:36.877Z)
Latitude
-0°
Longitude
-99.75408°
Altitude
967.5 km
Speed
7.328 km/s
True Right ascension
08h 32m 57s
True Declination
0° 00' 00"
Sunlit
Object was in daylight at epoch
Visualization orbit readout
Latitude
Unknown
Longitude
Unknown
Altitude
Unknown
Speed
Unknown
Apparent Right ascension
Unknown
Apparent Declination
Unknown
Sunlit
N/A
Visualization observer readout
Local Sidereal Time
20:05:50
Azimuth
Unknown
Elevation
Unknown
Doppler factor
Unknown
Orbital elements
Apogee altitude
973.131 km
Perigee altitude
795.731 km
Semi-major axis
7,262.568 km
Eccentricity
0.01221
Inclination
67.1182°
RAAN
128.2378°
Arg. of periapsis
206.4436°
True anomaly
153.6647°
Mean anomaly
153.0387°
Eccentric anomaly
153.35255°
Mean motion
3.50677 °/min
Orbital period
102.66 mins
BSTAR
0.00039579
Loading maneuver chart data...
Computing Atmospheric mass density...

Documentation

Showing up to 5 results
|